EHI
0 0 0 0 0 0 0 0 0 0 0 0 0 0 0 0 0 0 0 0 0 0 0 0 0 0 0 0 0 0 0 0 0 0 0 0 0 0 0 0 0 0 0
0 0 0 0 0 0 0 0 0 0 0 0 0 0 0 0 0 0 0 0 0 0 0 0 0 0 0 0 0 0 0 0 0 0 0 0 0 0 0 0 0 0 0
0 0 0 0 0 0 0 0 0 0 0 0 0 0 0 0 0 0 0 0 0 0 0 0 0 0 0 0 0 0 0 0 0 0 0 0 0 0 0 0 0 0 0
0 0 0 0 0 0 0 0 0 0 0 0 0 0 0 0 0 0 0 0 0 0 0 0 0 0 0 0 0 0 0 0 0 0 0 0 0 0 0 0 0 0 0
0 0 0 0 0 0 0 0 0 0 0 0 0 0 0 0 0 0 0 0 0 0 0 0 0 0 0 0 0 0 0 0 0 0 0 0 0 0 0 0 0 0 0
0 0 0 0 0 0 0 0 0 0 0 0 0 0 0 0 0 0 0 0 0 0 0 0 0 0 0 0 0 0 0 0 0 0 0 0 0 0 0 0 0 0 0
0 0 0 0 0 0 0 0 0 0 0 0 0 0 0 0 0 0 0 0 0 0 0 0 0 0 0 0 0 0 0 0 0 0 0 0 0 0 0 0 0 0 0
0 0 0 0 0 0 0 0 0 0 0 0 0 0 0 0 0 0 0 0 0 0 0 0 0 0 0 0 0 0 0 0 0 0 0 0 0 0 0 0 0 0 0
0 0 0 0 0 0 0 0 0 0 0 0 0 0 0 0 0 0 0 0 0 0 0 0 0 0 0 0 0 0 0 0 0 0 0 0 0 0 0 0 0 0 0
0 0 0 0 0 0 0 0 0 0 0 0 0 0 0 0 0 0 0 0 0 0 0 0 0 0 0 0 0 0 0 0 0 0 0 0 0 0 0 0 0 0 0
0 0 0 0 0 0 0 0 0 0 0 0 0 0 0 0 0 0 0 0 0 0 0 0 0 0 0 0 0 0 0 0 0 0 0 0 0 0 0 0 0 0 0
0 0 0 0 0 0 0 0 0 0 0 0 0 0 0 0 0 0 0 0 0 0 0 0 0 0 0 0 0 0 0 0 0 0 0 0 0 0 0 0 0 0 0
0 0 0 0 0 0 0 0 0 0 0 0 0 0 0 0 0 0 0 0 0 0 0 0 0 0 0 0 0 0 0 0 0 0 0 0 0 0 0 0 0 0 0
0 0 0 0 0 0 0 0 0 0 0 0 0 0 0 0 0 0 0 0 0 0 0 0 0 0 0 0 0 0 0 0 0 0 0 0 0 0 0 0 0 0 0
0 0 0 0 0 0 0 0 0 0 0 0 0 0 0 0 0 0 0 0 0 0 0 0 0 0 0 0 0 0 0 0 0 0 0 0 0 0 0 0 0 0 0
0 0 0 0 0 0 0 0 0 0 0 0 0 0 0 0 0 0 0 0 0 0 0 0 0 0 0 0 0 0 0 0 0 0 0 0 0 0 0 0 0 0 0
0 0 0 0 0 0 0 0 0 0 0 0 0 0 0 0 0 0 0 0 0 0 0 0 0 0 0 0 0 0 0 0 0 0 0 0 0 0 0 0 0 0 0
0 0 0 0 0 0 0 0 0 0 0 0 0 0 0 0 0 0 0 0 0 0 0 0 0 0 0 0 0 0 0 0 0 0 0 0 0 0 0 0 0 0 0
0 0 0 0 0 0 0 0 0 0 0 0 0 0 0 0 0 0 0 0 0 0 0 0 0 0 0 0 0 0 0 0 0 0 0 0 0 0 0 0 0 0 0
0 0 0 0 0 0 0 0 0 0 0 0 0 0 0 0 0 0 0 0 0 0 0 0 0 0 0 0 0 0 0 0 0 0 0 0 0 0 0 0 0 0 0
0 0 0 0 0 0 0 0 0 0 0 0 0 0 0 0 0 0 0 0 0 0 0 0 0 0 0 0 0 0 0 0 0 0 0 0 0 0 0 0 0 0 0
0 0 0 0 0 0 0 0 0 0 0 0 0 0 0 0 0 0 0 0 0 0 0 0 0 0 0 0 0 0 0 0 0 0 0 0 0 0 0 0 0 0 0
0 0 0 0 0 0 0 0 0 0 0 0 0 0 0 0 0 0 0 0 0 0 0 0 0 0 0 0 0 0 0 0 0 0 0 0 0 0 0 0 0 0 0
0 0 0 0 0 0 0 0 0 0 0 0 0 0 0 0 0 0 0 0 0 0 0 0 0 0 0 0 0 0 0 0 0 0 0 0 0 0 0 0 0 0 0
0 0 0 0 0 0 0 0 0 0 0 0 0 0 0 0 0 0 0 0 0 0 0 0 0 0 0 0 0 0 0 0 0 0 0 0 0 0 0 0 0 0 0
0 0 0 0 0 0 0 0 0 0 0 0 0 0 0 0 0 0 0 0 0 0 0 0 0 0 0 0 0 0 0 0 0 0 0 0 0 0 0 0 0 0 0
Wind_Speed
9 7 7 7 7 6 6 6 6 5 5 5 5 4 4 4 4 4 5 5 5 5 4 5 5 4 3 3 3 3 3 3 4 5 3 3 4 5 6 5 5 5 5
9 8 8 7 7 7 6 7 6 6 6 6 5 5 5 5 5 5 6 6 6 6 6 5 6 5 5 4 3 4 4 4 4 6 4 3 4 5 5 6 5 5 5
9 9 8 7 8 8 7 7 6 6 6 6 6 6 6 6 6 6 6 6 6 7 6 6 6 5 6 5 5 5 4 5 4 4 4 3 3 4 4 5 5 4 5
9 9 9 9 9 9 8 7 7 7 7 7 7 7 7 6 6 6 6 6 6 6 6 6 6 6 7 7 6 6 5 5 4 4 4 4 4 4 2 3 4 3 4
9 10 10 9 8 8 8 8 7 7 8 7 7 6 6 6 6 7 6 6 6 6 6 6 7 9 10 8 6 6 6 5 4 4 4 3 4 3 3 2 3 4 4
10 11 10 8 8 8 8 8 7 7 7 7 7 7 7 7 9 11 8 6 6 6 7 7 7 8 10 12 12 12 10 7 6 5 5 5 7 5 4 3 3 2 4
11 10 9 9 9 9 9 8 8 8 7 8 8 7 8 9 12 12 12 7 7 7 7 7 7 8 8 6 8 10 10 13 13 8 7 8 7 6 5 5 4 5 5
10 10 9 10 10 9 8 9 9 7 7 7 8 8 8 9 13 14 14 9 7 8 8 8 8 8 9 8 7 7 8 8 9 8 8 9 9 8 7 7 6 5 5
10 10 10 10 10 9 9 10 8 7 7 7 6 8 8 9 13 14 13 6 7 9 9 9 9 9 13 14 8 8 8 8 10 13 13 12 13 13 9 4 4 4 5
11 11 10 9 10 10 11 9 7 7 8 7 7 8 9 9 12 15 13 5 7 7 7 8 12 12 13 13 8 7 8 9 7 6 7 9 9 10 12 9 7 6 5
7 6 7 8 9 9 8 7 6 7 7 7 8 8 8 11 12 15 14 8 8 7 6 7 7 12 13 13 10 8 11 9 5 6 6 6 5 5 6 6 7 7 7
2 3 5 6 6 6 6 6 6 6 7 7 7 8 8 9 12 13 16 16 13 9 8 7 8 12 13 12 9 10 13 9 4 4 5 6 6 7 6 7 8 9 9
3 2 2 3 3 3 5 6 5 5 6 7 7 8 8 7 8 16 17 17 17 11 9 11 11 12 11 9 12 14 10 6 5 6 7 8 8 7 5 5 6 7 8
5 4 4 4 4 3 3 4 5 6 7 7 8 9 9 7 7 7 7 8 11 11 9 9 11 11 10 10 9 8 7 6 7 8 7 7 5 5 5 5 5 5 4
5 5 5 4 4 5 5 5 6 7 9 9 9 9 9 9 12 13 9 7 7 7 5 3 3 3 4 5 5 6 6 6 7 7 7 7 6 6 7 5 5 4 5
4 4 4 4 4 5 6 7 10 12 15 17 17 15 11 14 14 15 16 15 13 10 6 4 6 6 7 7 7 6 6 7 8 7 7 7 7 7 7 6 5 6 6
3 4 4 4 5 5 6 6 8 10 13 15 16 16 16 16 16 15 14 12 10 11 6 6 7 7 8 7 7 7 7 7 7 7 7 8 7 7 7 6 6 6 7
4 5 5 5 5 6 6 6 6 7 9 8 10 13 14 15 15 14 11 7 5 7 7 8 9 8 8 8 8 8 7 6 6 6 7 7 7 7 7 7 7 8 7
4 4 5 5 5 6 6 6 6 8 7 8 7 8 11 11 10 9 9 7 8 9 9 9 9 8 8 8 8 7 7 7 7 6 6 7 6 7 7 8 7 10 9
4 9 8 5 5 6 6 7 7 8 8 8 7 7 6 4 3 5 7 7 8 8 8 9 8 8 8 7 7 6 6 7 7 6 6 6 6 6 8 8 7 7 7
4 7 10 7 6 6 7 7 7 8 8 8 8 9 10 6 6 6 6 7 8 8 8 8 7 7 7 6 5 6 7 7 6 6 6 6 6 6 6 7 7 7 7
5 5 5 6 6 7 7 7 7 8 8 9 8 8 10 6 5 5 5 5 6 6 6 5 5 5 5 5 5 5 6 6 6 6 6 6 6 6 6 6 6 6 6
5 6 6 6 6 9 9 7 7 8 8 8 8 8 6 5 5 4 4 4 4 3 3 3 4 4 4 4 4 5 6 6 6 6 6 6 6 6 6 7 8 7 7
5 6 7 7 7 7 8 8 8 9 9 8 8 7 6 5 4 4 3 2 2 1 1 2 2 3 4 4 3 4 4 5 5 5 7 7 7 6 6 6 7 8 7
5 6 7 7 7 8 8 9 9 9 8 8 7 6 5 5 4 3 2 1 1 1 1 1 2 3 5 6 5 4 5 6 5 5 5 6 7 7 7 7 7 7 7
6 6 6 6 7 7 8 8 9 9 8 8 7 6 5 4 4 3 3 2 2 2 2 2 3 4 5 4 5 5 5 5 6 6 5 5 7 7 7 6 8 7 7
Wind_Direction
178 178 174 183 186 184 188 200 202 205 204 202 208 214 222 230 233 226 232 235 237 247 250 243 249 247 246 249 244 236 224 201 246 270 261 279 291 295 301 291 279 267 264
178 176 179 184 184 187 198 207 206 209 211 209 210 214 224 229 228 226 234 235 230 237 243 242 249 250 246 245 240 241 241 225 228 267 278 282 281 286 288 292 288 279 265
176 177 181 186 188 196 204 207 206 207 210 212 209 216 225 228 228 228 227 232 231 231 233 232 240 241 248 246 241 241 243 249 227 242 266 265 274 284 299 297 292 288 283
179 181 188 195 197 202 205 206 207 204 206 212 215 220 224 227 229 232 231 233 235 236 232 230 232 231 236 242 244 240 239 244 243 244 259 268 271 279 288 294 306 304 296
182 190 199 200 200 202 205 208 209 209 212 213 216 224 226 226 231 231 231 233 232 236 237 237 237 238 238 237 238 234 230 231 235 239 252 265 269 277 273 271 285 297 294
188 199 200 196 199 203 206 207 210 215 218 214 217 221 226 232 235 229 217 222 224 227 237 243 248 253 255 255 255 249 230 223 227 230 238 242 253 249 249 253 263 295 298
194 198 195 194 200 206 208 207 212 216 216 219 224 222 227 235 239 238 230 221 223 229 233 238 250 252 250 249 261 267 258 244 230 221 229 238 242 238 236 252 246 239 245
196 198 196 194 202 205 205 210 215 213 213 220 224 224 228 236 236 237 238 230 228 233 232 231 236 249 253 245 249 257 255 253 243 233 227 236 237 235 225 232 241 251 257
200 205 203 198 201 203 208 216 215 212 218 219 219 223 229 240 239 239 236 225 231 239 238 235 232 241 251 250 246 249 258 262 257 243 234 237 240 240 232 228 240 245 266
211 210 204 199 202 207 213 216 213 212 222 223 229 227 231 241 244 240 232 218 232 244 246 241 237 240 248 251 234 232 245 254 257 263 252 251 248 249 243 225 222 231 242
225 214 208 207 210 213 215 215 213 216 223 228 236 239 237 241 249 245 233 214 223 235 243 245 241 239 241 243 231 221 235 243 245 245 251 255 252 245 242 229 219 220 225
227 220 225 226 226 222 218 222 218 217 226 236 242 252 249 245 245 248 240 226 218 220 233 238 238 238 238 238 235 234 243 249 242 244 249 252 249 248 244 237 231 229 229
20 338 297 282 262 246 226 229 230 224 230 240 239 250 257 250 245 244 243 236 225 221 232 233 233 238 239 243 244 243 244 235 227 237 246 250 244 243 241 243 247 241 241
24 2 347 331 308 288 263 244 240 238 240 243 243 249 254 254 248 243 239 237 230 225 231 237 239 244 243 243 249 250 236 224 221 234 242 249 247 239 239 235 241 243 248
17 3 348 332 314 303 288 266 255 248 244 245 249 247 248 252 249 233 219 219 211 211 196 208 225 233 239 243 245 244 238 229 230 235 240 246 246 244 246 234 229 229 232
7 346 331 322 313 306 302 299 281 269 269 260 255 252 252 248 252 240 228 222 212 188 171 208 225 228 235 241 244 246 238 233 232 231 233 236 240 242 246 238 224 226 236
347 325 316 313 310 306 302 300 301 300 289 279 270 263 253 255 253 244 233 222 206 174 188 221 229 232 235 237 237 240 243 239 232 229 233 234 235 238 239 239 233 231 236
325 317 315 305 302 300 297 295 293 297 303 299 290 277 268 259 253 245 228 189 191 194 215 225 231 233 233 235 237 238 243 243 234 231 233 234 233 234 237 238 234 232 235
307 301 300 297 296 295 295 294 293 294 291 290 292 292 282 271 257 242 196 193 210 217 221 227 231 232 233 234 235 236 237 239 236 230 231 233 232 232 238 239 236 234 230
302 304 309 303 300 302 302 300 299 296 293 290 286 286 286 272 255 236 209 212 220 227 227 228 230 230 231 233 233 232 234 237 236 234 235 236 235 232 237 239 235 232 228
301 305 311 310 300 298 299 299 297 297 295 291 288 286 281 269 255 246 231 221 223 226 229 230 231 230 229 228 228 231 235 239 237 235 235 237 237 236 236 236 235 233 229
302 298 298 299 299 299 300 297 296 296 297 297 296 294 289 276 259 246 235 235 233 227 223 221 226 228 227 224 225 230 237 242 240 235 238 240 238 238 237 235 235 233 227
307 307 308 308 309 310 309 305 303 301 297 298 301 299 293 280 269 263 256 254 246 230 221 216 224 237 235 228 227 228 236 241 239 237 240 244 241 238 234 234 235 233 231
316 317 317 317 316 315 312 310 307 302 299 299 300 299 295 290 284 276 266 259 251 242 217 205 219 235 244 247 243 238 239 246 247 244 244 247 246 243 238 238 237 234 233
326 325 324 322 321 319 316 315 314 312 310 309 309 309 311 312 310 304 296 289 293 303 293 266 248 254 258 259 258 255 258 261 258 257 253 248 249 247 244 243 240 235 231
333 332 329 325 323 322 322 324 324 324 322 320 322 325 328 330 335 338 341 340 335 326 307 290 280 282 283 278 275 273 271 270 264 257 251 248 247 246 244 244 242 235 232